Date String (YYYY-MM-DD hh:mm:ss) UTC,Instrument flags,absolute air pressure of the measurement (hPa),sample flow rate (lpm),inlet stack bypass flow (lpm),air temperature of the measurement (°C),ambient temperature measured by the external sensor (°C),aerosol sample conditioner tube jacket temperature (°C),OPC LED temperature (°C),internal box temperature (°C),relative humidity of the measurement (%),span deviation,mass concentration of particles derived from Lorenz-Mie calculation of OPC scattering (μg/m³),mass concentration of particles derived from Lorenz-Mie calculation of OPC scattering (μg/m³),mass concentration of particles derived from Lorenz-Mie calculation of OPC scattering (μg/m³)
DateTimeUTC,F1_M11,P_M11,Q1_M11,Q2_M11,T1_M11,T2_M11,T3_M11,T4_M11,T5_M11,U1_M11,ZSPAN_M11,X0_M11,X2_M11,X1_M11
2024-04-01 00:00:00,SystemResetWarning,0815.5,5.00,000.00,022.9,022.3,000.0,031.4,024.8,23.9,0001.7,0017.97,0012.18,0011.33
2024-04-01 00:01:00,SystemResetWarning,0815.5,5.00,000.00,022.9,022.3,000.0,031.4,024.8,23.8,0001.6,0017.59,0012.21,0011.34
2024-04-01 00:02:00,SystemResetWarning,0815.6,5.00,000.00,022.9,022.3,000.0,031.4,024.8,23.8,0001.9,0017.96,0012.23,0011.33
2024-04-01 00:03:00,SystemResetWarning,0815.6,5.00,000.00,022.9,022.3,000.0,031.4,024.8,23.8,0002.1,0018.32,0012.27,0011.33
2024-04-01 00:04:00,SystemResetWarning,0815.6,5.01,000.00,022.9,022.3,000.0,031.4,024.8,23.9,0002.1,0018.20,0012.23,0011.30
2024-04-01 00:05:00,SystemResetWarning,0815.6,4.99,000.00,022.9,022.3,000.0,031.4,024.8,23.7,0002.1,0018.06,0012.12,0011.22
2024-04-01 00:06:00,SystemResetWarning,0815.7,4.99,000.00,022.9,022.3,000.0,031.4,024.8,23.8,0001.7,0018.07,0012.05,0011.16
2024-04-01 00:07:00,SystemResetWarning,0815.8,5.00,000.00,022.9,022.3,000.0,031.4,024.8,23.9,0002.0,0018.39,0012.01,0011.11
2024-04-01 00:08:00,SystemResetWarning,0815.8,5.02,000.00,023.0,022.3,000.0,031.4,024.8,24.2,0001.9,0018.33,0011.99,0011.07
2024-04-01 00:09:00,SystemResetWarning,0815.8,5.00,000.00,023.0,022.3,000.0,031.4,024.8,24.1,0001.6,0018.08,0011.93,0011.04
2024-04-01 00:10:00,SystemResetWarning,0815.8,4.99,000.00,023.0,022.3,000.0,031.4,024.8,24.0,0001.7,0017.83,0011.85,0011.00
2024-04-01 00:11:00,SystemResetWarning,0815.8,5.00,000.00,023.0,022.3,000.0,031.4,024.8,23.5,0001.9,0019.37,0011.80,0010.94
2024-04-01 00:12:00,SystemResetWarning,0815.8,5.02,000.00,023.0,022.3,000.0,031.4,024.8,23.3,0001.9,0020.89,0011.75,0010.87
2024-04-01 00:13:00,SystemResetWarning,0815.8,5.01,000.00,023.0,022.3,000.0,031.4,024.8,23.2,0001.4,0020.52,0011.65,0010.80
2024-04-01 00:14:00,SystemResetWarning,0815.7,5.00,000.00,023.0,022.3,000.0,031.4,024.8,23.2,0001.4,0020.62,0011.58,0010.76
2024-04-01 00:15:00,SystemResetWarning,0815.7,4.99,000.00,023.0,022.3,000.0,031.5,024.8,22.8,0001.4,0020.66,0011.56,0010.72
2024-04-01 00:16:00,SystemResetWarning,0815.6,4.99,000.00,023.0,022.3,000.0,031.5,024.9,22.6,0001.5,0020.92,0011.55,0010.71
2024-04-01 00:17:00,SystemResetWarning,0815.6,5.01,000.00,023.0,022.3,000.0,031.5,024.9,22.6,0001.8,0020.67,0011.56,0010.71
2024-04-01 00:18:00,SystemResetWarning,0815.6,5.00,000.00,023.0,022.4,000.0,031.5,024.9,22.9,0001.7,0020.35,0011.54,0010.67
2024-04-01 00:19:00,SystemResetWarning,0815.7,5.00,000.00,023.0,022.4,000.0,031.5,024.9,22.9,0002.0,0020.33,0011.54,0010.64
2024-04-01 00:20:00,SystemResetWarning,0815.6,5.01,000.00,023.0,022.4,000.0,031.5,024.9,23.2,0001.9,0020.15,0011.50,0010.61
2024-04-01 00:21:00,SystemResetWarning,0815.6,5.00,000.00,023.0,022.4,000.0,031.5,024.9,23.3,0001.5,0020.80,0011.51,0010.59
2024-04-01 00:22:00,SystemResetWarning,0815.3,5.00,000.00,023.0,022.4,000.0,031.5,024.9,23.5,0001.4,0020.04,0011.47,0010.56
2024-04-01 00:23:00,SystemResetWarning,0815.1,5.00,000.00,023.0,022.4,000.0,031.5,024.9,23.4,0001.3,0017.78,0011.39,0010.52
2024-04-01 00:24:00,SystemResetWarning,0815.0,5.00,000.00,023.0,022.4,000.0,031.5,024.9,22.9,0001.5,0018.19,0011.32,0010.48
2024-04-01 00:25:00,SystemResetWarning,0814.9,5.00,000.00,023.0,022.4,000.0,031.5,024.9,23.4,0001.4,0017.94,0011.23,0010.43
2024-04-01 00:26:00,SystemResetWarning,0814.9,5.01,000.00,023.0,022.4,000.0,031.5,024.9,23.9,0001.2,0017.89,0011.17,0010.37
2024-04-01 00:27:00,SystemResetWarning,0815.0,5.01,000.00,023.0,022.4,000.0,031.5,024.9,24.1,0000.9,0017.74,0011.12,0010.31
2024-04-01 00:28:00,SystemResetWarning,0815.1,5.01,000.00,023.0,022.3,000.0,031.5,024.9,24.2,0001.0,0017.71,0011.06,0010.22
2024-04-01 00:29:00,SystemResetWarning,0815.1,5.00,000.00,023.0,022.3,000.0,031.5,024.9,24.2,0001.0,0017.50,0010.92,0010.15
2024-04-01 00:30:00,SystemResetWarning,0815.1,5.00,000.00,023.0,022.3,000.0,031.5,024.9,23.9,0000.7,0017.20,0010.81,0010.10
2024-04-01 00:31:00,SystemResetWarning,0815.1,5.00,000.00,023.0,022.3,000.0,031.5,024.9,23.9,0000.6,0016.88,0010.70,0010.01
2024-04-01 00:32:00,SystemResetWarning,0815.2,5.00,000.00,023.0,022.3,000.0,031.5,024.9,23.5,0000.9,0016.39,0010.64,0009.94
2024-04-01 00:33:00,SystemResetWarning,0815.1,4.99,000.00,023.0,022.3,000.0,031.5,024.9,23.2,0001.0,0016.88,0010.54,0009.86
2024-04-01 00:34:00,SystemResetWarning,0815.2,5.00,000.00,023.0,022.3,000.0,031.5,024.9,23.4,0001.1,0017.01,0010.48,0009.78
2024-04-01 00:35:00,SystemResetWarning,0815.3,5.00,000.00,023.0,022.3,000.0,031.5,024.9,23.6,0000.8,0016.65,0010.47,0009.73
2024-04-01 00:36:00,SystemResetWarning,0815.3,5.01,000.00,023.0,022.3,000.0,031.6,024.9,23.8,0000.8,0015.84,0010.48,0009.70
2024-04-01 00:37:00,SystemResetWarning,0815.3,5.01,000.00,023.0,022.3,000.0,031.6,024.9,24.1,0001.2,0015.93,0010.48,0009.70
2024-04-01 00:38:00,SystemResetWarning,0815.3,5.00,000.00,023.0,022.3,000.0,031.6,024.9,24.3,0001.6,0016.44,0010.46,0009.69
2024-04-01 00:39:00,SystemResetWarning,0815.3,5.00,000.00,023.0,022.3,000.0,031.6,024.9,24.4,0001.5,0016.40,0010.46,0009.70
2024-04-01 00:40:00,SystemResetWarning,0815.3,4.99,000.00,023.0,022.3,000.0,031.6,024.9,24.5,0001.6,0016.83,0010.47,0009.71
2024-04-01 00:41:00,SystemResetWarning,0815.2,4.99,000.00,023.0,022.3,000.0,031.6,024.9,24.6,0001.7,0017.68,0010.45,0009.71
2024-04-01 00:42:00,SystemResetWarning,0815.1,4.99,000.00,023.0,022.3,000.0,031.6,024.8,24.5,0002.1,0017.96,0010.46,0009.70
2024-04-01 00:43:00,SystemResetWarning,0815.1,4.99,000.00,023.0,022.3,000.0,031.6,024.8,24.6,0002.1,0018.01,0010.45,0009.70
2024-04-01 00:44:00,SystemResetWarning,0815.2,5.00,000.00,023.0,022.3,000.0,031.6,024.9,24.7,0002.0,0016.98,0010.45,0009.72
2024-04-01 00:45:00,SystemResetWarning,0815.2,5.01,000.00,023.0,022.3,000.0,031.5,024.8,24.8,0001.8,0016.93,0010.50,0009.76
2024-04-01 00:46:00,SystemResetWarning,0815.2,5.01,000.00,023.0,022.3,000.0,031.5,024.8,24.9,0001.9,0016.77,0010.51,0009.77
2024-04-01 00:47:00,SystemResetWarning,0815.3,5.00,000.00,023.0,022.3,000.0,031.5,024.8,25.0,0002.0,0017.42,0010.50,0009.78
2024-04-01 00:48:00,SystemResetWarning,0815.5,5.00,000.00,023.0,022.3,000.0,031.5,024.8,25.1,0001.4,0018.70,0010.51,0009.75
2024-04-01 00:49:00,SystemResetWarning,0815.7,4.99,000.00,023.0,022.3,000.0,031.5,024.8,25.1,0001.6,0018.46,0010.54,0009.75
2024-04-01 00:50:00,SystemResetWarning,0815.6,5.00,000.00,023.0,022.3,000.0,031.5,024.8,25.2,0001.8,0018.67,0010.57,0009.76
2024-04-01 00:51:00,SystemResetWarning,0815.8,4.99,000.00,023.0,022.3,000.0,031.5,024.8,25.2,0001.6,0018.38,0010.59,0009.77
2024-04-01 00:52:00,SystemResetWarning,0815.9,5.00,000.00,023.0,022.3,000.0,031.5,024.8,25.3,0001.4,0018.14,0010.60,0009.77
2024-04-01 00:53:00,SystemResetWarning,0815.9,5.00,000.00,023.0,022.3,000.0,031.5,024.8,25.3,0001.4,0018.35,0010.64,0009.78
2024-04-01 00:54:00,SystemResetWarning,0815.9,5.00,000.00,023.0,022.3,000.0,031.5,024.8,25.3,0001.3,0018.18,0010.67,0009.80
2024-04-01 00:55:00,SystemResetWarning,0815.8,5.01,000.00,023.0,022.3,000.0,031.5,024.8,25.3,0001.3,0018.09,0010.67,0009.80
2024-04-01 00:56:00,SystemResetWarning,0815.8,5.00,000.00,023.0,022.2,000.0,031.5,024.8,25.3,0001.2,0018.57,0010.61,0009.79
2024-04-01 00:57:00,SystemResetWarning,0815.8,5.00,000.00,023.0,022.2,000.0,031.5,024.8,25.2,0001.3,0019.24,0010.59,0009.79
2024-04-01 00:58:00,SystemResetWarning,0815.8,5.00,000.00,023.0,022.2,000.0,031.5,024.8,25.3,0001.3,0018.62,0010.56,0009.78
2024-04-01 00:59:00,SystemResetWarning,0815.9,5.00,000.00,023.0,022.2,000.0,031.5,024.8,25.2,0001.5,0017.41,0010.54,0009.76
